Location: Terra Rouge Observatory
(46.0000°N, 62.7500°W)
Time: 21:40:39
(UTC-03:00)

NOSS 3-1 (A) - Visible Passes

Search period start: 25 July 2016 00:00
Search period end: 04 August 2016 00:00
Orbit: 856 x 1357 km, 63.4° (Epoch: 18 July)

Date Brightness Start Highest point End Pass type
(mag) Time Alt. Az. Time Alt. Az. Time Alt. Az.
25 Jul 4.3 00:00:24 10° NW 00:07:44 61° NE 00:12:43 25° ESE visible
25 Jul 4.5 01:51:38 10° NW 01:58:37 40° WSW 02:00:06 37° SW visible
25 Jul 5.8 21:24:40 10° NNW 21:29:51 21° NNE 21:35:29 10° ENE visible
25 Jul 4.7 23:15:44 10° NNW 23:22:44 46° NE 23:28:53 16° ESE visible
26 Jul 4.2 01:06:39 10° NW 01:14:03 58° WSW 01:16:17 45° S visible
26 Jul 5.8 03:00:50 10° W 03:03:41 12° WSW 03:03:41 12° WSW visible
26 Jul 5.1 22:31:04 10° NNW 22:37:38 35° NNE 22:44:49 10° E visible
27 Jul 3.9 00:21:50 10° NW 00:29:22 82° SW 00:32:31 42° SSE visible
27 Jul 5.3 02:14:11 10° WNW 02:19:34 21° WSW 02:19:56 21° WSW visible
27 Jul 5.4 21:46:20 10° NNW 21:52:22 28° NNE 21:58:58 10° E visible
27 Jul 4.1 23:37:06 10° NW 23:44:34 74° NE 23:48:50 31° SE visible
28 Jul 4.9 01:28:38 10° NW 01:35:12 31° WSW 01:36:14 30° SW visible
28 Jul 4.4 22:52:26 10° NW 22:59:39 54° NE 23:05:12 21° ESE visible
29 Jul 4.5 00:43:31 10° NW 00:50:42 46° WSW 00:52:37 40° SSW visible
29 Jul 4.8 22:07:46 10° NNW 22:14:37 41° NE 22:21:37 12° ESE visible
29 Jul 4.1 23:58:36 10° NW 00:06:05 67° WSW 00:09:02 42° S visible
30 Jul 5.7 01:51:50 10° WNW 01:56:01 15° WSW 01:56:27 15° WSW visible
30 Jul 5.1 21:23:05 10° NNW 21:29:26 32° NNE 21:36:24 10° E visible
30 Jul 4.0 23:13:50 10° NW 23:21:22 88° NE 23:25:30 33° SE visible
31 Jul 5.3 01:05:48 10° WNW 01:11:44 25° WSW 01:12:56 24° WSW visible
31 Jul 4.2 22:29:07 10° NW 22:36:31 66° NE 22:42:02 22° SE visible
01 Aug 4.8 00:20:28 10° NW 00:27:18 37° WSW 00:29:28 32° SW visible
01 Aug 4.6 21:44:27 10° NNW 21:51:33 49° NE 21:58:37 13° ESE visible
01 Aug 4.4 23:35:26 10° NW 23:42:46 54° WSW 23:46:03 35° S visible
02 Aug 6.0 01:30:36 10° W 01:32:25 11° WSW 01:33:29 11° WSW visible
02 Aug 4.9 20:59:47 10° NNW 21:06:28 37° NE 21:13:47 10° E visible
02 Aug 4.1 22:50:35 10° NW 22:58:06 76° SW 23:02:40 29° SSE visible
03 Aug 5.6 00:43:12 10° WNW 00:48:13 19° WSW 00:50:06 17° SW visible
03 Aug 4.1 22:05:50 10° NW 22:13:20 79° NE 22:19:21 20° SE visible
